Regional Weather Roundup
Issued by NWS Albany, NY

Home | Current Version | Previous Version | Text Only | Print | Product List | Glossary On
Versions: 1 2 3 4 5 6 7 8 9 10 11 12 13 14 15 16 17 18 19 20 21 22 23 24 25 26 27 28 29 30 31 32 33 34 35 36 37 38 39 40 41 42 43 44 45 46 47 48 49 50
000
ASUS41 KALY 261610
RWRALY

NEW YORK STATE HOURLY WEATHER ROUNDUP
NATIONAL WEATHER SERVICE ALBANY NY
1200 PM EDT WED APR 26 2017

NOTE: "FAIR" INDICATES FEW OR NO CLOUDS BELOW 12,000 FEET WITH NO
SIGNIFICANT WEATHER AND/OR NO OBSTRUCTIONS TO VISIBILITY.

NYZ032-033-038>043-046>054-057>066-NYZ062>081-082-084-261700-
EAST


CITY           SKY/WX    TMP DP  RH WIND       PRES   REMARKS
ALBANY         CLOUDY    59  54  83 N6        29.85S
GLENS FALLS    CLOUDY    60  52  74 NW8       29.85F
POUGHKEEPSIE   FOG       57  54  89 N7        29.79F VSB 1
NEWBURGH       CLOUDY    57  55  94 NE14      29.81F
MONTGOMERY     CLOUDY    60  53  77 NE14      29.78F
WHITE PLAINS   CLOUDY    60  55  83 NE9       29.77S
ISLIP          DRIZZLE   58  57  97 NE12      29.76S FOG
NEW YORK CITY  LGT RAIN  57  53  86 NE14      29.77S
CENTRAL PARK   CLOUDY    57  55  93 VRB6G18   29.80R
$$

NYZ005>009-017-018-044>046-055-056-261700-
CENTRAL


CITY           SKY/WX    TMP DP  RH WIND       PRES   REMARKS
FULTON         CLOUDY    63  52  67 VRB3      29.82F
SYRACUSE       PTSUNNY   62  53  72 N9        29.81F
ROME           CLOUDY    63  54  72 S7        29.82F
ELMIRA         CLOUDY    61  53  75 W5        29.81F
BINGHAMTON     FAIR      65  55  70 CALM      29.80S
MONTICELLO     CLOUDY    55  55 100 E9        29.82S
$$

NYZ026>034-041>043-087-261700-
NORTH


CITY           SKY/WX    TMP DP  RH WIND       PRES   REMARKS
WATERTOWN      CLOUDY    65  56  72 N6        29.83S
FORT DRUM      NOT AVBL
OGDENSBURG     CLOUDY    59  53  82 N7        29.86R
MASSENA        CLOUDY    57  54  89 NE8       29.87F
SARANAC LAKE   CLOUDY    63  57  81 S7        29.84F
PLATTSBURGH    PTSUNNY   57  50  77 CALM      29.88F
$$

NYZ001>004-010>016-019>021-085-261700-
WEST


CITY           SKY/WX    TMP DP  RH WIND       PRES   REMARKS
NIAGARA FALLS  CLOUDY    64  52  64 E3        29.79S
BUFFALO        PTSUNNY   62  53  72 E5        29.79F
DUNKIRK        CLOUDY    62  54  74 N10       29.79S
JAMESTOWN      FAIR      61  52  72 W6        29.80S
WELLSVILLE     FAIR      66  55  67 VRB5      29.82F
ROCHESTER      PTSUNNY   64  54  69 CALM      29.81S
PENN YAN       FAIR      66  53  63 CALM      29.81F
$$

             KEY
       WCI = WIND CHILL INDEX
       VSB = VISIBILITY
       HX  = HEAT INDEX
$$



USA.gov is the U.S. government's official web portal to all federal, state and local government web resources and services.